カタログに戻る

STARLINK-37306

運用中通信SSO
NORAD 68680·PAYLOAD·🇺🇸 United States

打ち上げ Apr 11, 2026 から Vandenberg Space Force Base

Loading…

次のパス (今後24時間)

TLE

最新Source: CelesTrak SupGP

元期: Sep 15, 2026, 04:03 UTC

1 68680C 26077U   26258.16923611 -.00003058  00000+0 -94932-4 0  2588
2 68680  97.2850 128.1901 0001842 100.7304 104.3474 15.33436332    10

AllMySatでSTARLINK-37306をリアルタイム追跡

Download on the App Store